Wetbulb
66.22 66.15 65.34 65.14 64.68 64.77 63.76 63.68 63.58 62.62 62.23 61.94 62.17 61.91 61.39 62.14 61.89 61.77 60.53 61.35 61.55 60.40 59.75 59.79 58.01 58.08 57.14 57.39 57.15 56.12 55.67 55.80 55.51 55.08 54.47 54.31 54.15 53.90 53.30 53.25 53.27 53.15 53.31
66.58 65.74 65.47 65.05 64.56 64.38 64.46 63.55 63.20 62.77 62.32 61.91 61.25 61.40 61.40 61.37 62.22 61.78 61.14 59.90 60.79 60.99 59.76 59.19 59.14 57.86 57.50 56.66 56.41 56.48 56.00 55.19 55.15 55.04 54.25 53.80 53.43 53.12 52.96 52.79 52.41 52.21 52.49
66.54 65.89 64.80 64.57 64.83 64.79 64.47 64.10 63.75 63.44 62.27 61.67 61.08 60.75 61.12 61.49 61.51 61.57 61.78 61.04 59.64 59.73 59.79 60.33 59.82 58.74 58.87 57.59 56.87 56.39 56.21 55.53 55.44 54.92 54.64 54.03 54.05 53.42 52.87 52.76 52.29 51.92 51.88
66.43 66.35 64.39 64.22 64.91 64.94 63.94 63.43 63.07 62.35 61.99 61.31 60.72 60.50 60.86 60.97 61.46 61.49 61.51 61.28 61.10 60.14 59.22 60.23 60.54 59.24 58.47 58.52 58.38 57.37 57.33 56.76 55.62 55.55 55.06 54.92 54.50 54.20 53.55 53.03 53.00 52.24 51.99
66.09 65.61 64.53 64.67 66.04 63.72 63.51 63.30 62.97 63.00 61.75 61.34 60.61 60.66 60.63 60.38 60.60 60.55 60.61 60.72 61.36 60.49 60.64 59.24 59.75 59.82 59.48 58.59 58.52 58.38 58.32 57.63 57.00 56.15 55.96 55.45 55.09 54.56 54.13 54.14 53.63 53.05 52.60
65.84 65.42 64.74 65.04 64.54 63.10 63.10 63.04 62.96 62.91 62.68 61.76 60.31 59.82 60.55 60.68 60.57 59.86 59.46 59.87 60.13 60.58 60.09 59.73 58.45 58.05 58.33 58.91 58.76 58.66 59.29 58.92 58.55 57.85 56.92 56.65 55.88 55.39 54.93 54.11 54.19 53.82 53.43
65.59 65.30 64.15 64.19 64.19 62.73 63.25 64.45 62.88 62.56 61.52 62.65 60.07 59.09 59.80 60.60 60.57 59.96 60.24 59.95 59.90 59.80 60.04 59.40 59.51 59.75 58.69 58.41 59.30 58.75 59.33 59.42 59.75 59.70 58.70 57.49 57.05 56.11 55.39 55.19 54.77 54.44 54.17
65.62 64.97 64.41 63.56 63.86 62.42 63.70 63.12 62.89 61.19 61.16 61.93 58.45 57.85 55.41 57.38 58.97 59.87 60.18 59.95 60.58 60.27 59.60 59.96 59.84 59.61 59.59 58.86 58.40 58.89 58.92 59.05 59.56 59.75 59.79 59.47 58.52 57.40 56.69 56.04 55.61 55.03 54.72
65.84 65.81 64.82 63.98 64.68 63.99 62.27 63.46 62.54 61.81 59.56 60.75 61.09 58.33 55.23 53.74 56.69 59.70 60.07 59.54 61.30 60.09 60.71 60.72 60.58 60.16 60.39 60.24 59.97 58.88 56.93 57.23 59.06 59.19 59.69 60.72 60.09 59.11 57.99 57.33 56.74 56.05 55.71
65.82 65.90 64.77 63.87 64.35 63.52 63.11 63.76 62.91 62.95 62.18 59.23 60.43 60.51 61.80 59.67 53.34 53.51 57.05 58.74 59.80 59.94 61.70 61.15 61.14 61.24 61.06 60.81 60.46 58.32 55.74 54.56 56.30 58.78 58.80 59.19 60.25 60.46 59.92 58.55 57.89 57.32 56.52
67.03 66.60 65.17 64.83 64.10 64.33 64.23 64.47 64.13 63.62 62.74 61.26 59.91 59.87 59.91 59.31 59.32 55.42 54.05 55.73 57.87 59.49 60.84 61.68 61.58 61.82 61.88 61.55 61.58 60.17 54.69 53.06 53.74 56.56 58.31 58.28 58.55 59.75 60.27 60.55 59.91 58.60 58.04
65.25 66.74 66.46 64.60 65.05 64.48 64.67 64.37 65.00 64.29 63.15 62.92 62.25 61.87 59.86 58.31 57.46 56.95 55.94 57.31 57.65 59.84 60.42 61.21 61.75 61.84 62.31 62.56 61.19 57.01 54.27 52.10 52.00 53.96 55.85 57.13 58.14 58.65 59.23 59.74 60.41 60.36 59.84
64.20 66.48 66.15 65.55 64.33 65.34 65.15 65.29 64.94 64.69 64.67 63.29 63.72 61.87 62.05 60.91 60.77 59.76 58.29 57.18 56.87 59.48 61.04 61.97 62.56 63.20 61.73 62.39 62.10 56.77 55.38 51.47 51.13 52.64 54.14 55.15 56.06 56.86 57.62 58.20 59.08 59.78 59.84
63.76 66.21 64.44 66.52 66.42 65.96 65.85 65.53 64.40 64.19 64.96 64.94 64.36 63.84 62.48 62.13 61.73 60.88 59.57 58.13 56.67 58.39 60.26 61.38 62.04 62.27 62.21 62.50 60.88 54.93 59.00 51.16 50.35 50.59 51.84 53.02 53.82 54.51 54.83 55.66 56.70 57.37 58.12
63.80 64.93 65.65 65.00 65.39 66.14 65.07 64.59 63.61 64.31 64.91 65.28 65.19 64.83 63.22 63.10 63.34 63.20 62.62 61.66 58.82 55.61 57.10 61.05 61.28 65.08 64.36 63.76 61.12 61.95 60.62 55.73 50.66 49.23 49.29 50.56 52.05 52.85 53.20 53.47 54.16 54.82 55.75
63.35 62.42 63.24 63.29 63.33 65.02 64.82 64.29 62.77 62.15 61.68 62.61 64.35 63.76 63.47 63.36 63.39 63.47 63.27 62.75 61.49 59.25 56.98 60.83 61.95 64.40 65.92 63.82 62.93 62.42 61.95 55.29 51.52 48.76 47.60 47.98 49.14 50.66 51.58 51.74 52.01 52.71 53.54
62.56 61.49 61.76 61.43 60.65 60.18 60.31 60.71 61.39 61.71 61.38 61.44 61.64 62.64 62.18 63.61 62.33 62.73 62.73 61.82 60.91 60.80 57.63 60.49 62.57 64.57 65.16 64.94 64.74 65.46 64.11 63.46 61.77 50.99 48.53 47.32 46.98 47.40 48.40 49.17 49.60 50.23 51.04
59.41 62.15 62.71 61.86 60.58 60.61 60.87 60.82 59.97 60.60 60.30 60.15 59.99 60.03 61.66 62.35 61.38 63.39 63.62 63.15 63.34 62.94 58.78 57.16 61.62 63.06 63.53 65.06 65.31 65.03 63.82 62.94 63.06 58.19 50.09 48.24 47.01 46.13 45.99 46.33 46.57 46.94 47.76
55.26 56.96 58.48 60.31 61.30 60.92 60.66 60.73 60.56 60.60 60.53 60.25 59.84 60.56 60.85 61.28 60.69 61.19 61.29 61.33 61.73 61.97 61.30 59.23 58.71 62.00 61.86 62.78 61.73 62.15 63.09 63.94 64.07 57.58 53.04 48.77 46.82 46.63 46.04 45.67 45.41 45.48 45.78
53.18 55.28 55.56 56.49 57.78 57.40 60.08 59.99 61.43 60.61 60.92 60.45 60.42 60.97 61.40 61.51 61.01 60.94 61.33 61.34 61.58 60.69 59.97 58.79 58.37 57.99 59.16 59.83 59.87 58.58 58.76 61.26 61.46 62.44 58.90 55.09 54.24 50.51 46.79 46.38 45.71 45.48 45.34
54.02 54.55 55.08 56.45 57.02 54.94 46.06 48.18 53.35 57.01 59.87 59.99 59.91 60.36 61.40 59.41 54.19 55.32 60.23 60.77 60.79 59.70 59.25 58.94 58.07 57.52 57.50 57.80 57.19 59.42 58.19 59.08 60.62 61.03 61.26 62.46 63.17 63.32 61.69 48.67 49.32 45.99 45.00
54.37 55.60 55.65 55.84 56.70 44.78 38.16 39.34 43.10 52.07 54.48 56.82 59.15 60.53 60.83 54.52 54.04 47.52 47.16 46.07 52.40 58.53 58.88 58.44 58.38 56.56 57.15 57.49 58.15 57.41 57.23 56.35 54.40 59.29 60.04 59.98 62.44 61.82 62.70 63.08 54.43 47.41 45.92
54.33 55.27 55.66 55.92 51.92 44.78 36.98 37.50 37.19 49.02 53.53 56.53 57.97 58.21 58.19 58.55 48.29 51.81 49.14 45.99 44.33 42.63 43.90 54.43 55.87 57.05 57.26 57.67 57.69 56.97 56.95 56.51 56.25 58.50 58.01 56.44 59.14 59.48 61.45 61.12 51.34 49.23 45.78
52.29 54.68 53.50 53.28 47.39 40.88 36.06 36.17 35.83 47.42 54.23 56.46 57.27 54.31 52.96 50.80 42.84 44.98 51.35 54.43 55.25 56.23 54.72 50.44 49.83 50.61 51.13 51.39 51.59 52.14 52.27 52.96 54.07 55.69 57.69 53.87 57.57 56.81 58.98 60.23 52.20 50.38 48.30
47.29 46.54 46.32 45.67 44.58 39.58 35.54 35.67 38.87 54.72 55.90 55.66 46.23 43.25 45.53 44.09 37.41 38.34 48.45 48.84 48.82 49.22 44.83 41.63 41.73 41.23 41.10 41.37 43.06 48.04 50.51 50.84 49.75 51.55 54.89 53.46 54.33 54.82 56.51 57.39 59.74 51.04 47.46
43.30 42.66 41.69 41.37 37.85 40.64 35.27 35.99 37.03 51.26 51.74 51.91 46.37 42.31 35.72 37.62 36.45 36.65 45.87 47.74 45.76 45.96 46.19 48.55 49.82 48.09 47.20 47.16 43.08 48.69 47.78 44.73 44.59 44.14 50.99 45.71 46.52 48.23 47.61 53.64 56.11 57.43 58.33
MSLP
1021.47 1021.97 1022.31 1022.71 1023.00 1023.09 1023.80 1023.49 1023.74 1024.31 1024.49 1024.65 1024.74 1024.75 1024.65 1024.42 1024.85 1024.99 1026.42 1027.33 1027.35 1027.56 1027.65 1027.85 1028.15 1028.37 1028.58 1028.72 1028.84 1029.00 1029.05 1029.05 1029.24 1029.36 1029.47 1029.58 1029.67 1029.69 1029.72 1029.74 1029.73 1029.69 1029.65
1021.50 1021.42 1022.01 1022.31 1022.81 1022.80 1022.98 1023.25 1023.83 1024.22 1024.37 1024.62 1024.95 1024.96 1025.00 1024.95 1024.90 1025.39 1026.03 1027.09 1027.45 1027.47 1027.68 1027.78 1028.00 1028.26 1028.46 1028.65 1028.86 1028.89 1028.98 1029.10 1029.22 1029.34 1029.56 1029.68 1029.81 1029.88 1029.88 1029.89 1029.94 1029.92 1029.87
1021.84 1021.96 1022.23 1022.43 1022.47 1022.63 1023.08 1023.30 1023.85 1023.91 1024.20 1024.59 1024.86 1025.19 1025.07 1025.12 1025.07 1025.26 1025.27 1026.14 1027.25 1027.50 1027.57 1027.66 1027.91 1027.98 1028.22 1028.49 1028.66 1028.79 1028.83 1028.99 1029.14 1029.32 1029.47 1029.59 1029.67 1029.80 1029.86 1029.85 1029.91 1029.95 1029.95
1021.92 1022.15 1022.12 1022.50 1022.65 1022.66 1023.09 1023.25 1023.65 1023.70 1023.93 1024.29 1024.52 1024.81 1024.77 1025.07 1025.21 1025.37 1025.23 1025.31 1025.79 1026.37 1027.26 1027.46 1027.62 1027.77 1027.91 1028.01 1028.17 1028.42 1028.53 1028.62 1028.84 1028.96 1029.19 1029.34 1029.49 1029.57 1029.67 1029.71 1029.73 1029.80 1029.78
1021.80 1022.01 1021.71 1022.23 1022.67 1022.81 1022.98 1023.16 1023.55 1023.55 1023.70 1023.97 1024.34 1024.60 1024.61 1024.71 1025.19 1025.07 1025.16 1025.52 1025.48 1025.53 1025.85 1026.64 1027.12 1027.40 1027.65 1027.78 1027.79 1027.86 1027.93 1028.15 1028.37 1028.57 1028.69 1028.87 1029.01 1029.16 1029.32 1029.36 1029.42 1029.52 1029.54
1021.72 1021.97 1021.56 1022.05 1022.74 1022.72 1022.88 1023.06 1023.29 1023.51 1023.50 1023.83 1023.99 1024.42 1024.69 1024.65 1024.70 1024.87 1025.12 1025.27 1025.38 1025.65 1025.68 1026.13 1026.81 1026.95 1027.31 1027.34 1027.44 1027.44 1027.35 1027.42 1027.58 1027.89 1028.11 1028.24 1028.46 1028.64 1028.78 1028.93 1028.95 1029.08 1029.14
1021.48 1021.93 1021.62 1022.08 1022.63 1022.79 1022.98 1023.28 1023.45 1023.49 1023.62 1023.78 1024.12 1024.52 1024.73 1024.89 1024.90 1024.75 1024.75 1024.82 1024.92 1025.21 1025.46 1025.51 1025.40 1025.25 1025.90 1026.56 1026.76 1026.95 1027.02 1026.98 1026.94 1027.07 1027.30 1027.57 1027.75 1027.97 1028.16 1028.29 1028.37 1028.39 1028.52
1021.11 1021.42 1021.59 1021.72 1022.26 1022.35 1022.69 1023.15 1023.56 1023.54 1023.82 1024.01 1024.16 1024.10 1024.09 1024.27 1024.36 1024.61 1024.56 1024.46 1024.67 1024.61 1024.62 1024.94 1024.96 1024.98 1024.87 1025.44 1025.83 1026.15 1026.28 1026.39 1026.38 1026.38 1026.44 1026.69 1026.94 1027.23 1027.47 1027.59 1027.70 1027.83 1027.87
1020.89 1020.99 1021.32 1021.24 1021.62 1021.87 1022.07 1022.82 1023.29 1023.52 1023.55 1023.98 1024.35 1023.87 1023.57 1023.26 1022.98 1023.41 1024.03 1024.18 1024.19 1024.32 1024.21 1024.09 1024.20 1024.44 1024.51 1024.45 1024.47 1025.06 1025.41 1025.63 1025.74 1025.80 1025.82 1025.86 1026.05 1026.23 1026.47 1026.78 1026.97 1027.07 1027.12
1020.49 1020.51 1020.96 1021.38 1021.47 1021.59 1021.70 1022.36 1022.87 1023.10 1023.45 1023.54 1023.93 1024.23 1023.75 1023.59 1023.09 1022.68 1023.18 1023.51 1023.87 1023.78 1023.72 1023.75 1023.53 1023.70 1023.90 1023.97 1023.94 1023.96 1024.29 1024.62 1024.84 1025.09 1025.25 1025.27 1025.31 1025.36 1025.44 1025.57 1025.76 1025.98 1026.16
1019.37 1019.82 1020.19 1020.74 1021.11 1021.26 1021.46 1021.63 1022.28 1022.74 1022.94 1023.11 1023.28 1023.60 1023.77 1023.75 1023.85 1023.57 1022.83 1022.75 1023.09 1023.04 1022.84 1023.05 1023.16 1022.94 1023.02 1023.23 1023.16 1023.12 1023.40 1023.88 1024.15 1024.32 1024.42 1024.50 1024.50 1024.60 1024.64 1024.61 1024.67 1024.76 1024.92
1018.83 1019.09 1019.42 1019.95 1020.50 1020.84 1020.80 1021.15 1021.52 1022.03 1022.60 1022.63 1022.81 1022.63 1022.85 1023.05 1023.00 1022.91 1022.74 1022.42 1022.05 1021.87 1022.13 1022.18 1022.22 1022.33 1022.22 1022.18 1022.31 1022.41 1022.62 1022.90 1023.08 1023.11 1023.22 1023.38 1023.46 1023.41 1023.47 1023.62 1023.73 1023.77 1023.86
1018.42 1018.40 1018.83 1019.33 1019.67 1020.14 1020.28 1020.39 1020.91 1021.18 1021.65 1022.10 1022.31 1022.31 1022.09 1022.07 1022.30 1022.25 1022.14 1022.01 1021.69 1021.53 1021.30 1021.36 1021.44 1021.35 1021.49 1021.49 1021.30 1021.32 1021.43 1021.74 1021.93 1022.03 1022.20 1022.27 1022.38 1022.55 1022.55 1022.57 1022.68 1022.68 1022.61
1017.91 1017.60 1017.95 1018.64 1019.08 1019.42 1019.67 1020.02 1020.53 1020.70 1020.93 1021.26 1021.69 1021.88 1021.87 1021.68 1021.97 1021.99 1021.88 1021.58 1021.29 1020.78 1020.53 1020.37 1020.71 1020.81 1020.93 1020.82 1020.62 1020.79 1020.83 1020.86 1020.86 1020.89 1020.97 1021.27 1021.53 1021.70 1021.91 1021.91 1021.77 1021.65 1021.74
1017.43 1017.41 1017.55 1018.15 1018.67 1019.00 1019.17 1019.69 1020.10 1020.24 1020.27 1020.55 1020.83 1021.12 1021.29 1021.33 1021.41 1021.30 1021.22 1021.11 1021.00 1020.48 1019.60 1019.35 1019.12 1018.88 1019.18 1019.42 1019.50 1019.77 1019.73 1019.52 1019.88 1020.19 1020.29 1020.19 1020.24 1020.33 1020.37 1020.50 1020.51 1020.53 1020.50
1017.20 1017.19 1017.50 1018.01 1018.41 1018.63 1018.79 1019.29 1019.68 1020.18 1020.25 1020.39 1020.14 1020.30 1020.62 1020.76 1020.75 1020.75 1020.71 1020.64 1020.54 1020.36 1019.50 1019.24 1018.64 1018.59 1018.32 1018.22 1018.25 1018.63 1018.54 1018.70 1018.80 1019.04 1019.23 1019.43 1019.24 1019.13 1019.12 1018.96 1019.03 1019.20 1019.20
1016.77 1016.73 1017.68 1018.40 1018.46 1018.49 1018.66 1019.23 1019.72 1019.95 1019.74 1019.95 1018.78 1020.07 1020.08 1020.21 1020.34 1020.32 1020.31 1020.15 1019.92 1019.85 1019.51 1018.42 1018.52 1018.15 1017.99 1018.06 1017.97 1017.91 1017.65 1017.72 1017.59 1017.62 1017.67 1017.69 1017.78 1017.85 1018.09 1018.26 1018.23 1018.26 1018.30
1016.52 1017.05 1016.86 1017.94 1018.58 1018.54 1018.50 1018.86 1018.79 1019.17 1019.73 1019.68 1019.77 1019.79 1019.52 1019.82 1019.85 1019.83 1019.83 1019.65 1019.43 1019.25 1019.23 1018.62 1018.20 1017.83 1017.70 1017.54 1017.35 1017.23 1017.10 1017.07 1016.72 1016.18 1016.28 1016.13 1016.17 1016.17 1016.44 1016.70 1016.96 1017.06 1016.89
1016.74 1017.20 1017.44 1017.92 1018.08 1017.96 1018.30 1018.48 1018.49 1018.42 1018.87 1019.11 1019.17 1019.33 1019.21 1019.53 1019.54 1019.38 1019.37 1018.73 1018.86 1018.75 1018.77 1018.54 1018.05 1017.83 1017.69 1017.46 1017.21 1016.94 1016.63 1016.18 1015.89 1015.59 1015.39 1015.17 1015.15 1015.20 1015.07 1015.25 1015.38 1015.23 1015.20
1017.26 1017.43 1017.51 1017.85 1017.90 1018.11 1017.99 1018.07 1018.10 1018.25 1018.57 1018.66 1018.75 1018.95 1019.06 1019.03 1019.06 1018.99 1018.87 1018.50 1018.53 1018.72 1018.69 1018.57 1018.04 1017.77 1017.58 1017.20 1017.17 1016.87 1016.21 1015.62 1015.13 1014.70 1014.20 1013.85 1013.42 1013.36 1013.42 1013.17 1013.50 1013.73 1013.82
1017.11 1017.21 1017.39 1017.50 1017.86 1018.22 1018.83 1018.73 1018.48 1018.16 1018.13 1018.17 1018.20 1018.58 1018.66 1018.63 1018.69 1018.61 1018.76 1018.64 1018.45 1018.41 1018.34 1017.97 1017.55 1017.32 1017.07 1016.98 1016.71 1016.16 1015.47 1015.08 1014.14 1014.14 1013.30 1012.80 1012.16 1011.65 1011.52 1011.78 1011.78 1012.03 1012.27
1016.82 1016.90 1017.10 1017.51 1017.89 1019.19 1019.69 1019.23 1018.97 1018.49 1018.17 1018.10 1017.88 1017.91 1018.09 1018.20 1018.21 1018.29 1018.40 1018.34 1018.34 1018.21 1017.89 1017.40 1016.79 1016.59 1016.59 1016.39 1016.19 1015.75 1015.07 1014.68 1013.25 1013.47 1012.51 1011.42 1011.43 1010.58 1010.17 1009.86 1009.59 1009.91 1010.03
1017.08 1016.93 1017.03 1017.38 1018.36 1019.61 1019.97 1019.49 1019.16 1018.68 1018.08 1017.81 1017.72 1017.80 1017.92 1018.09 1018.49 1018.51 1018.36 1018.22 1017.92 1017.71 1017.71 1017.51 1017.18 1016.76 1016.42 1016.20 1015.98 1015.42 1014.77 1013.96 1012.76 1012.12 1011.94 1010.53 1010.66 1009.65 1009.36 1008.75 1008.71 1008.61 1008.49
1017.36 1016.94 1017.49 1018.14 1019.21 1020.36 1020.34 1019.74 1019.18 1018.51 1017.82 1017.39 1017.48 1018.02 1018.36 1018.82 1019.42 1019.15 1018.43 1017.94 1017.75 1017.51 1017.63 1017.85 1017.89 1017.80 1017.56 1017.21 1016.70 1016.17 1015.50 1014.64 1013.25 1012.13 1011.83 1010.27 1009.89 1008.99 1008.66 1007.80 1007.39 1007.22 1007.08
1018.67 1018.79 1019.19 1019.71 1020.17 1020.87 1020.66 1019.98 1019.09 1017.63 1017.28 1017.55 1018.53 1019.06 1019.40 1019.72 1019.90 1019.51 1018.67 1018.35 1018.09 1017.77 1017.80 1017.82 1017.72 1017.42 1017.02 1016.63 1016.44 1015.99 1015.30 1014.42 1012.96 1011.72 1011.25 1010.67 1009.25 1008.56 1007.77 1006.54 1006.17 1005.80 1005.64
1019.63 1019.99 1020.50 1020.99 1021.15 1021.10 1021.01 1020.22 1019.37 1018.15 1017.86 1018.02 1018.91 1019.56 1020.27 1020.48 1020.22 1019.87 1019.27 1018.59 1018.43 1018.10 1017.91 1017.18 1016.67 1016.50 1016.41 1016.40 1016.38 1016.20 1015.92 1015.37 1014.39 1012.32 1011.52 1011.83 1010.55 1010.14 1007.76 1006.90 1005.60 1005.07 1004.44
Wind_Speed
7 10 8 9 7 8 9 8 6 6 5 5 4 5 4 4 4 6 7 8 8 7 8 9 6 6 6 5 6 5 4 4 4 3 2 3 3 3 3 3 4 4 4
6 6 7 8 8 6 7 6 7 6 6 6 5 4 4 5 4 7 8 8 6 6 6 7 9 7 6 4 4 5 5 2 3 3 3 2 2 2 0 0 1 2 3
6 6 7 6 5 7 7 6 6 6 5 5 6 5 5 4 5 4 7 10 9 7 5 8 8 8 8 8 7 6 6 6 5 5 5 5 5 4 4 4 3 2 3
10 8 7 6 4 6 7 6 7 6 6 5 6 6 6 5 5 5 5 4 10 10 9 8 10 10 10 10 10 9 10 9 8 8 8 8 8 8 8 7 6 6 6
11 9 7 7 6 7 7 7 7 6 6 5 5 5 5 5 6 7 6 6 5 4 9 17 13 11 10 12 12 12 13 13 12 12 12 11 11 11 11 11 10 9 9
11 9 8 8 8 8 7 7 6 6 5 6 5 5 4 5 5 5 7 7 8 8 7 11 10 9 13 15 16 16 16 16 15 15 15 15 14 14 13 13 13 12 12
11 10 8 8 9 8 8 6 6 7 6 5 4 3 5 6 7 7 7 7 9 8 9 8 7 8 11 19 19 19 18 17 17 18 17 17 17 16 16 16 16 15 15
10 11 11 11 11 10 9 8 8 6 7 6 6 5 6 7 9 9 8 8 9 8 10 11 10 10 9 10 16 22 22 21 20 20 20 18 18 19 19 18 18 18 17
9 13 13 10 11 10 9 10 10 11 7 7 10 6 5 5 4 8 9 9 8 9 9 9 11 12 11 9 8 17 23 21 21 22 22 19 20 20 21 21 20 20 20
13 14 12 11 10 9 9 9 10 9 9 6 7 10 9 7 3 4 5 7 8 9 9 8 9 10 11 10 12 13 17 22 22 23 24 23 21 20 22 23 23 22 22
16 15 14 13 11 9 10 9 9 10 8 9 6 8 9 8 8 5 7 7 8 8 9 9 9 8 10 11 10 12 15 19 20 21 23 25 25 23 23 22 24 25 24
11 15 15 11 12 11 11 10 11 11 10 9 10 9 9 8 9 8 8 9 8 6 7 8 8 9 10 10 13 14 12 17 20 23 24 25 26 26 26 25 25 25 25
8 13 13 12 10 13 12 12 12 12 12 12 11 10 9 9 8 8 7 8 9 8 8 6 7 6 7 9 10 13 16 17 19 22 24 26 26 27 27 27 27 27 27
10 13 13 12 12 12 12 11 9 10 12 11 14 12 10 9 9 9 9 8 9 9 9 11 7 8 9 9 10 10 10 14 19 21 23 24 24 25 26 27 29 29 29
10 13 14 12 12 13 12 12 10 13 12 11 13 13 11 9 9 9 9 9 9 11 11 9 9 10 9 10 11 12 14 16 16 18 21 24 25 26 27 28 30 30 30
7 4 4 7 8 10 11 11 9 10 11 10 10 12 12 10 12 10 10 10 9 10 14 10 9 10 9 9 9 13 15 13 13 16 18 21 23 25 28 29 30 30 31
4 5 6 6 6 8 7 6 9 11 11 10 8 11 13 13 9 9 9 9 9 10 11 12 11 11 12 11 12 11 11 11 11 19 21 23 24 25 26 27 27 27 28
6 7 8 10 8 8 10 11 9 9 10 9 10 11 14 8 10 11 10 13 11 12 11 14 13 11 12 12 13 13 10 11 13 14 17 21 23 23 25 26 26 26 26
3 1 2 3 8 7 10 9 10 7 6 12 12 12 11 11 11 11 10 11 11 10 11 11 9 10 11 9 12 9 12 12 11 15 17 16 18 21 23 24 25 28 29
2 4 3 3 3 4 6 11 11 9 12 10 10 10 11 13 14 14 12 11 9 9 9 9 8 8 10 11 10 10 11 11 12 13 14 17 18 19 24 26 26 26 27
3 3 4 4 2 6 7 7 5 4 8 11 12 11 12 11 13 12 8 9 8 7 8 10 10 9 9 10 12 11 12 11 13 12 13 13 12 12 12 19 21 25 26
5 4 5 4 3 7 9 9 8 5 5 5 3 5 5 8 10 14 15 15 13 12 14 11 9 10 12 9 10 10 11 12 13 8 14 13 12 12 12 12 13 22 24
2 4 3 4 11 11 14 13 11 6 6 6 6 6 5 2 9 7 8 9 11 15 15 13 14 12 14 12 12 13 14 13 14 12 12 15 10 16 13 13 17 18 21
4 4 9 11 11 11 15 15 15 8 8 9 5 10 9 9 11 10 8 8 9 9 9 5 6 8 11 12 10 12 13 14 13 12 10 15 11 13 11 13 18 21 21
8 9 11 12 10 11 17 17 14 5 5 7 11 12 9 9 10 12 7 7 8 7 9 10 11 14 12 12 10 6 9 10 12 14 11 11 13 15 14 15 14 18 21
9 8 10 9 10 9 14 17 17 6 6 4 9 9 15 10 9 12 11 9 9 11 13 14 12 11 11 12 13 11 9 10 10 10 6 10 12 13 10 12 13 14 13
Wind_Direction
187 169 183 148 194 175 180 187 119 161 158 159 155 166 174 73 126 117 131 140 145 155 155 148 158 153 157 158 146 160 149 154 143 138 111 110 124 104 99 72 65 57 61
188 186 163 179 195 185 179 169 157 159 179 157 166 177 176 157 198 153 139 152 181 164 171 167 165 179 164 164 186 176 177 183 168 188 188 202 197 185 157 28 24 20 20
177 197 185 202 195 193 170 169 173 178 162 189 171 181 181 185 157 216 165 155 159 174 186 184 195 190 198 193 194 210 208 206 215 223 217 230 222 227 238 255 255 283 300
181 199 185 201 184 188 191 178 193 181 176 190 174 191 199 183 187 194 224 220 173 179 185 196 191 207 205 217 207 213 220 211 219 234 225 233 235 237 239 249 251 261 269
189 206 193 190 170 191 199 188 196 201 180 192 184 205 213 198 184 201 218 207 234 251 191 176 186 200 214 220 226 223 224 219 221 228 233 232 234 235 246 250 246 256 260
198 204 205 189 179 205 196 200 205 200 213 202 211 189 210 233 218 229 213 224 222 217 249 171 189 208 205 216 225 231 229 228 226 227 234 232 234 240 238 243 250 251 254
191 201 213 194 191 209 205 196 204 212 222 196 221 223 225 229 249 246 223 233 225 215 224 232 237 241 190 209 217 226 234 240 239 232 233 236 232 235 240 241 243 246 249
184 194 218 190 192 208 198 193 214 213 224 201 223 226 230 207 221 227 247 230 238 237 220 223 234 238 260 192 213 218 226 235 241 245 237 229 232 233 238 240 242 245 248
210 209 207 210 189 219 191 202 204 216 210 206 223 252 224 251 162 184 211 235 238 231 248 241 226 230 237 245 246 202 214 222 232 242 247 243 230 232 234 237 243 245 249
212 210 200 219 210 205 205 191 209 215 235 206 202 245 276 313 266 191 208 204 230 235 235 243 238 228 237 236 232 242 200 211 218 228 240 246 248 243 236 236 239 243 243
208 213 197 200 213 207 211 202 203 204 222 240 202 221 241 247 248 269 279 201 209 233 227 223 241 242 228 230 239 237 214 204 215 225 233 239 242 246 248 244 238 238 242
200 207 211 198 204 215 208 205 210 207 214 235 243 221 227 228 235 235 247 263 265 250 213 225 223 233 244 238 230 244 220 210 212 218 225 233 237 239 241 244 245 243 241
216 208 207 207 202 210 215 212 211 215 207 221 233 245 241 239 243 259 250 263 268 265 251 237 267 254 245 244 248 227 219 213 217 222 227 230 234 239 241 242 243 244 244
204 205 203 211 213 216 216 218 229 217 219 220 225 234 244 235 235 241 256 247 260 256 253 253 221 225 236 249 244 256 262 224 225 225 226 231 235 238 244 246 244 243 245
207 205 199 203 216 221 218 218 215 226 236 224 224 227 236 238 247 241 244 253 255 267 263 258 254 232 221 233 229 230 236 238 230 231 231 230 232 234 235 238 243 243 242
172 167 191 219 236 241 237 224 209 228 230 247 232 223 227 235 242 244 244 243 247 257 271 264 270 279 278 262 249 231 238 233 227 231 233 237 235 237 239 239 240 241 242
148 185 205 203 206 196 210 245 247 253 235 235 255 242 236 236 242 249 250 249 247 247 255 270 265 270 263 268 267 264 252 246 248 231 230 229 228 235 241 246 246 246 245
135 233 220 230 230 217 213 213 201 212 231 242 248 249 251 251 255 256 254 252 248 249 249 255 263 269 275 273 265 262 269 264 260 257 230 229 228 227 233 238 241 243 242
74 158 163 225 244 242 232 230 230 215 236 236 238 241 254 256 257 259 260 253 256 258 262 266 265 274 274 282 281 280 273 276 269 261 256 239 231 233 233 235 235 237 240
197 214 167 227 264 339 279 230 227 211 227 232 240 243 253 254 257 263 266 266 262 264 262 267 263 263 265 264 269 276 270 266 271 270 262 253 257 235 229 232 235 238 242
215 189 184 187 172 69 23 360 2 338 248 239 235 235 231 239 244 250 264 271 268 261 257 258 265 273 270 273 265 271 271 269 266 271 272 270 269 260 246 232 238 235 238
210 203 189 204 172 72 10 18 360 328 317 298 299 251 259 252 253 253 255 250 253 268 278 278 269 262 266 268 267 270 272 276 278 245 258 259 259 265 266 258 235 220 221
307 249 211 214 75 48 10 6 356 303 283 273 264 266 260 324 35 350 328 306 266 254 247 269 279 284 294 297 296 293 280 271 271 273 270 272 264 269 268 266 257 248 225
290 7 48 43 73 47 14 3 334 275 268 259 322 44 50 41 24 350 322 312 314 323 0 4 341 329 324 317 302 294 294 293 291 289 288 281 278 268 266 265 250 245 244
66 59 54 45 64 38 8 2 343 321 10 73 68 48 37 34 10 347 345 339 332 329 344 323 309 294 292 291 281 308 316 309 303 302 300 270 282 278 270 271 269 249 242
78 74 74 73 49 56 20 8 358 10 53 55 115 96 56 27 4 1 353 355 341 347 330 335 337 345 337 356 353 345 339 324 321 307 351 336 315 319 310 309 287 285 283